Regional Weather Roundup
Issued by NWS Mt. Holly, NJ

Home | Current Version | Previous Version | Text Only | Print | Product List | Glossary On
Versions: 1 2 3 4 5 6 7 8 9 10 11 12 13 14 15 16 17 18 19 20 21 22 23 24 25 26 27 28 29 30 31 32 33 34 35 36 37 38 39 40 41 42 43 44 45 46 47 48 49 50
000
ASUS41 KPHI 190610
RWRPHI

REGIONAL WEATHER ROUNDUP
NATIONAL WEATHER SERVICE MOUNT HOLLY NJ
200 AM EDT FRI SEP 19 2014

NOTE:  "FAIR" INDICATES FEW OR NO CLOUDS BELOW 12,000 FEET WITH NO
SIGNIFICANT WEATHER AND/OR OBSTRUCTIONS TO VISIBILITY.

 * = STATION DOES NOT REPORT PRECIPITATION (E.G. RAIN, SNOW, ETC.)
        OR FOG.

NJZ015>026-190700-
SOUTHERN NEW JERSEY

CITY           SKY/WX    TMP DP  RH WIND       PRES   REMARKS
POMONA         CLEAR     56  53  90 W3        30.11R
6HR MIN TEMP:  53; 6HR MAX TEMP:  67;

RIO GRANDE*    PTCLDY    57  50  77 CALM      30.12R
MILLVILLE      CLEAR     54  53  97 CALM      30.11R
WRIGHTSTOWN    CLEAR     55  51  86 N6        30.11R
MOUNT HOLLY    PTCLDY    55  49  80 N6        30.12R
TRENTON        CLEAR     57  48  72 N8        30.14R
6HR MIN TEMP:  55; 6HR MAX TEMP:  68;


$$
NJZ001>014-190700-
NORTHERN NEW JERSEY

CITY           SKY/WX    TMP DP  RH WIND       PRES   REMARKS
SUSSEX         PTCLDY    51  47  86 CALM      30.19R
ANDOVER*         N/A     50  49  96 CALM      30.18R
MORRISTOWN     FOG       50  46  87 CALM      30.16R VSB 1
NEWARK         PTCLDY    60  50  69 N12       30.15R
TETERBORO      CLEAR     60  49  66 N3        30.15R
CALDWELL       CLEAR     54  48  80 NE3       30.17R
SOMERVILLE     CLEAR     51  48  89 CALM      30.14R
ALLAIRE*       CLEAR     61  50  67 N8        30.12R
TOMS RIVER*    CLEAR     52  48  87 CALM      30.12R

$$
PAZ043-044-047-054-055-060>062-066>071-190700-
EASTERN PENNSYLVANIA

CITY           SKY/WX    TMP DP  RH WIND       PRES   REMARKS
PHILADELPHIA   PTCLDY    62  49  62 N14       30.13R
6HR MIN TEMP:  61; 6HR MAX TEMP:  69;

NORTH PHILA    CLEAR     61  48  62 N10       30.15R
BLUE BELL      CLEAR     59  50  72 CALM      30.14R
DOYLESTOWN     CLEAR     56  50  80 N8        30.15R
QUAKERTOWN*    CLEAR     57  48  72 N8        30.17R
POTTSTOWN      CLEAR     57  49  74 NE9       30.16R
LANCASTER      CLEAR     56  48  74 NE7       30.15R
COATESVILLE    CLEAR     57  48  72 N6        30.16R
READING        CLEAR     55  49  80 N6        30.16R
6HR MIN TEMP:  55; 6HR MAX TEMP:  65;

ALLENTOWN      CLEAR     54  47  77 CALM      30.17R
6HR MIN TEMP:  53; 6HR MAX TEMP:  65;

MOUNT POCONO   CLEAR     48  44  86 N5        30.18R
6HR MIN TEMP:  48; 6HR MAX TEMP:  55;

HAZLETON       PTCLDY    50  45  81 N6        30.22R
WILKES BARRE   CLEAR     52  46  80 N6        30.20R

$$
DEZALL-MDZ008-012-015-019-020-190700-
DELAWARE AND EASTERN MARYLAND

CITY           SKY/WX    TMP DP  RH WIND       PRES   REMARKS
WILMINGTON     CLEAR     57  53  86 N9        30.14R
6HR MIN TEMP:  55; 6HR MAX TEMP:  66;

DOVER          CLEAR     59  56  88 W3        30.09R
GEORGETOWN     PTCLDY    59  55  87 CALM      30.12R
6HR MIN TEMP:  59; 6HR MAX TEMP:  66; 6HR PCP: TRACE;

EASTON         CLEAR     59  59 100 CALM      30.15R
PATUXENT       CLEAR     57  55  93 W3        30.11R
OCEAN CITY     CLOUDY    61  56  83 CALM      30.11R
WALLOPS ISLAND CLOUDY    63  59  87 N3        30.11S
CAMBRIDGE        N/A     59  55  88 CALM      30.11R
SALISBURY      CLOUDY    64  58  80 CALM      30.11R

$$
PAZ001-021-NYZ056-072-MDZ011-DCZ001-190700-
OTHER NEARBY LOCATIONS

CITY           SKY/WX    TMP DP  RH WIND       PRES   REMARKS
HARRISBURG     PTCLDY    56  49  77 NW3       30.16R
STATE COLLEGE  CLEAR     51  47  87 NE6       30.20R
WILLIAMSPORT   CLEAR     50  47  89 CALM      30.20R
BINGHAMTON     CLEAR     43  41  93 N7        30.22R
NEW YORK CITY  CLEAR     61  48  62 NE6       30.18R
BALTIMORE      CLEAR     55  54  96 CALM      30.13R
WASHINGTON DC  CLEAR     66  60  81 NE3       30.13R

$$


USA.gov is the U.S. government's official web portal to all federal, state and local government web resources and services.